Overview Statistics Trail Chart Weather Telemetry Raw packets
 

This is the latest recevied weather packets stored in our database for station/object KE8AFF-13. If no packets are shown the sender has not sent any weather packets the latest 10 day(s).

<< 1 2 3 4 >>
Time Temp. Humidity Pressure Rain* Wind** Luminosity Snow
1788615495 20.56° C 99% 1013.1 hPa 0 mm - 167 W/m² -
1788615190 20.56° C 99% 1013.1 hPa 0 mm - 162 W/m² -
1788614889 20.56° C 99% 1013.3 hPa 0 mm - 159 W/m² -
1788614584 20.56° C 99% 1013.2 hPa 0 mm - 139 W/m² -
1788614279 20.56° C 99% 1013.2 hPa 0 mm - 128 W/m² -
1788613975 20° C 99% 1013.1 hPa 0 mm - 121 W/m² -
1788613670 20° C 99% 1013.1 hPa 0 mm - 109 W/m² -
1788613369 20° C 99% 1013.1 hPa 0 mm - 101 W/m² -
1788613064 20° C 99% 1012.9 hPa 0 mm - 95 W/m² -
1788612759 20° C 99% 1013 hPa 0 mm - 84 W/m² -
1788612456 20° C 99% 1013.1 hPa 0 mm - 69 W/m² -
1788612151 20° C 99% 1013 hPa 0 mm - 46 W/m² -
1788611846 20° C 99% 1013.2 hPa 0 mm - 34 W/m² -
1788611543 20° C 99% 1013.6 hPa 0 mm - 27 W/m² -
1788611243 20° C 99% 1013.2 hPa 0 mm - 20 W/m² -
1788610937 20° C 99% 1013.1 hPa 0 mm - 16 W/m² -
1788610632 20° C 99% 1013.6 hPa 0 mm - 12 W/m² -
1788610329 20° C 99% 1013.5 hPa 0 mm - 12 W/m² -
1788610028 20° C 99% 1013.5 hPa 0 mm - 14 W/m² -
1788609722 20° C 99% 1013.2 hPa 0 mm - 16 W/m² -
1788609422 20° C 99% 1013.5 hPa 0 mm - 16 W/m² -
1788609116 20° C 99% 1013.7 hPa 0 mm - 16 W/m² -
1788608811 20° C 99% 1013.5 hPa 0 mm - 14 W/m² -
1788608509 20° C 99% 1013 hPa 0 mm - 9 W/m² -
1788608204 20° C 99% 1013.1 hPa 0 mm - 6 W/m² -

* Rain latest hour (hover to see other rain measurements)
** Current wind speed in m/s (hover to see current wind gust speed)